Skip Page Navigation
NASA JPL Caltech
NASA Logo - Jet Propulsion Laboratory + View the NASA Portal
+ Near-Earth Object (NEO) Program
Search JPL
JPL Home Earth Solar System Stars & Galaxies Technology
JPL Solar System Dynamics
BODIES ORBITS EPHEMERIDES TOOLS PHYSICAL DATA DISCOVERY FAQ SITE MAP
JPL Small-Body Database Browser
Search: [ help ]  
133293 Andrushivka (2003 SA33)
Classification: Main-belt Asteroid          SPK-ID: 2133293
Ephemeris | Orbit Diagram | Orbital Elements | Physical Parameters | Discovery Circumstances | Close-Approach Data ]

[ show orbit diagram ]
Orbital Elements at Epoch 2456800.5 (2014-May-23.0) TDB
Reference: JPL 3 (heliocentric ecliptic J2000)
 Element Value Uncertainty (1-sigma)   Units 
e .1234566581033526 1.9476e-07  
a 3.107377199216348 7.1292e-08 AU
q 2.723750794734542 6.2137e-07 AU
i 10.93806322026455 1.9967e-05 deg
node 189.525751961491 5.2731e-05 deg
peri 203.9774753035129 7.1293e-05 deg
M 325.4126884978778 5.9943e-05 deg
tp 2456992.722266386801
(2014-Dec-01.22226639)
0.0003381 JED
period 2000.734167933301
5.48
6.8853e-05
1.885e-07
d
yr
n .1799339491322174 6.1923e-09 deg/d
Q 3.491003603698154 8.0093e-08 AU
  Orbit Determination Parameters
   # obs. used (total)      206  
   data-arc span      7942 days (21.74 yr)  
   first obs. used      1992-10-01  
   last obs. used      2014-06-30  
   planetary ephem.      DE431  
   SB-pert. ephem.      SB431-BIG16  
   condition code      0  
   fit RMS      .63684  
   data source      ORB  
   producer      Otto Matic  
   solution date      2014-Jul-14 15:20:13  

Additional Information
 Earth MOID = 1.73165 AU 
 T_jup = 3.180 
[ show covariance matrix ]

Ephemeris | Orbit Diagram | Orbital Elements | Physical Parameters | Discovery Circumstances | Close-Approach Data ]

Physical Parameter Table
Parameter Symbol Value Units Sigma Reference Notes
absolute magnitude H 15.0 mag n/a MPO232052  

133293 Andrushivka           Discovered 2003 Sept. 18 at Andrushivka.
Andrushivka is a district center in the Zhytomyr region of Ukraine. First mentioned in 1768, it has been a site for astronomical observations since 2001. This naming of the first minor planet discovered at Andrushivka is a tribute to a place that has made skies closer to numerous amateurs.
NOTE: some special characters may not display properly (any characters within {} are an attempt to place the proper accent above a character)
Reference: 20061109/MPCPages.arcLast Updated: 2006-11-13

[ show close-approach data ]
Ephemeris | Orbit Diagram | Orbital Elements | Physical Parameters | Discovery Circumstances | Close-Approach Data ]
ABOUT SSD CREDITS/AWARDS PRIVACY/COPYRIGHT GLOSSARY LINKS
FirstGov 2014-Aug-01 01:43 UT
(server date/time)  
NASA Home Page
Site Manager:   Donald K. Yeomans
Webmaster  Alan B. Chamberlin